Time,TemperatureF,DewpointF,PressureIn,WindDirection,WindDirectionDegrees,WindSpeedMPH,WindSpeedGustMPH,Humidity,HourlyPrecipIn,Conditions,Clouds,dailyrainin,SolarRadiationWatts/m^2,SoftwareType,DateUTC
2013-02-27 00:00:00,28.5,27.0,29.72,NE,40,2.0,3.0,94,0.00,,---,0.00,0.00,VWS V14.01,2013-02-27 06:00:00,
2013-02-27 00:05:00,28.4,26.9,29.72,North,355,5.0,7.0,94,0.00,,---,0.00,0.00,VWS V14.01,2013-02-27 06:05:00,
2013-02-27 00:10:00,28.5,27.0,29.72,ENE,57,2.0,7.0,94,0.00,,---,0.00,0.00,VWS V14.01,2013-02-27 06:10:00,
2013-02-27 00:15:00,28.4,26.9,29.72,NNE,28,1.0,7.0,94,0.00,,---,0.00,0.00,VWS V14.01,2013-02-27 06:15:00,
2013-02-27 00:20:00,28.4,26.9,29.72,North,5,4.0,7.0,94,0.00,,---,0.00,0.00,VWS V14.01,2013-02-27 06:20:00,
2013-02-27 00:25:00,28.4,26.9,29.72,NNE,26,3.0,7.0,94,0.00,,---,0.00,0.00,VWS V14.01,2013-02-27 06:25:00,
2013-02-27 00:30:00,28.3,26.8,29.72,ENE,60,4.0,7.0,94,0.00,,---,0.00,0.00,VWS V14.01,2013-02-27 06:30:00,
2013-02-27 00:35:00,28.3,26.8,29.72,NNE,22,3.0,8.0,94,0.00,,---,0.00,0.00,VWS V14.01,2013-02-27 06:35:00,
2013-02-27 00:40:00,28.4,26.9,29.72,NNW,342,4.0,8.0,94,0.00,,---,0.00,0.00,VWS V14.01,2013-02-27 06:40:00,
2013-02-27 00:45:00,28.4,27.1,29.72,NNE,22,2.0,8.0,95,0.00,,---,0.00,0.00,VWS V14.01,2013-02-27 06:45:00,
2013-02-27 00:50:00,28.4,27.1,29.72,NE,42,1.0,8.0,95,0.00,,---,0.00,0.00,VWS V14.01,2013-02-27 06:50:00,
2013-02-27 00:55:00,28.4,27.1,29.72,NNE,23,3.0,8.0,95,0.00,,---,0.00,0.00,VWS V14.01,2013-02-27 06:55:00,
2013-02-27 01:00:00,28.5,27.2,29.72,NNE,15,4.0,5.0,95,0.00,,---,0.00,0.00,VWS V14.01,2013-02-27 07:00:00,
2013-02-27 01:05:00,28.6,27.1,29.72,NNE,29,6.0,8.0,94,0.00,,---,0.00,0.00,VWS V14.01,2013-02-27 07:05:00,
2013-02-27 01:10:00,28.7,27.2,29.72,NE,34,4.0,8.0,94,0.00,,---,0.00,0.00,VWS V14.01,2013-02-27 07:10:00,
2013-02-27 01:15:00,28.7,27.2,29.72,NE,55,6.0,8.0,94,0.00,,---,0.00,0.00,VWS V14.01,2013-02-27 07:15:00,
2013-02-27 01:20:00,28.8,27.3,29.71,North,350,6.0,8.0,94,0.00,,---,0.00,0.00,VWS V14.01,2013-02-27 07:20:00,
2013-02-27 01:25:00,28.9,27.4,29.71,NE,42,4.0,8.0,94,0.00,,---,0.00,0.00,VWS V14.01,2013-02-27 07:25:00,
2013-02-27 01:30:00,29.0,27.5,29.71,NE,36,2.0,8.0,94,0.00,,---,0.00,0.00,VWS V14.01,2013-02-27 07:30:00,
2013-02-27 01:35:00,29.1,27.3,29.71,NE,42,4.0,8.0,93,0.00,,---,0.00,0.00,VWS V14.01,2013-02-27 07:35:00,
2013-02-27 01:40:00,29.1,27.3,29.71,NE,42,4.0,10.0,93,0.00,,---,0.00,0.00,VWS V14.01,2013-02-27 07:40:00,
2013-02-27 01:45:00,29.2,27.4,29.71,NNE,17,3.0,10.0,93,0.00,,---,0.00,0.00,VWS V14.01,2013-02-27 07:45:00,
2013-02-27 01:50:00,29.3,27.3,29.71,NNE,29,4.0,10.0,92,0.00,,---,0.00,0.00,VWS V14.01,2013-02-27 07:50:00,
2013-02-27 01:55:00,29.3,27.3,29.71,NE,34,1.0,10.0,92,0.00,,---,0.00,0.00,VWS V14.01,2013-02-27 07:55:00,
2013-02-27 02:00:00,29.3,27.3,29.71,NE,36,5.0,5.0,92,0.00,,---,0.00,0.00,VWS V14.01,2013-02-27 08:00:00,
2013-02-27 02:05:00,29.3,27.3,29.71,NNE,24,3.0,7.0,92,0.00,,---,0.00,0.00,VWS V14.01,2013-02-27 08:05:00,
2013-02-27 02:10:00,29.4,27.4,29.71,NE,34,9.0,9.0,92,0.00,,---,0.00,0.00,VWS V14.01,2013-02-27 08:10:00,
2013-02-27 02:15:00,29.4,27.1,29.71,NNE,18,4.0,9.0,91,0.00,,---,0.00,0.00,VWS V14.01,2013-02-27 08:15:00,
2013-02-27 02:20:00,29.5,27.2,29.71,North,355,2.0,9.0,91,0.00,,---,0.00,0.00,VWS V14.01,2013-02-27 08:20:00,
2013-02-27 02:25:00,29.4,27.1,29.71,NE,36,2.0,9.0,91,0.00,,---,0.00,0.00,VWS V14.01,2013-02-27 08:25:00,
2013-02-27 02:30:00,29.5,27.2,29.71,North,5,3.0,9.0,91,0.00,,---,0.00,0.00,VWS V14.01,2013-02-27 08:30:00,
2013-02-27 02:35:00,29.5,27.2,29.71,NNE,19,4.0,9.0,91,0.00,,---,0.00,0.00,VWS V14.01,2013-02-27 08:35:00,
2013-02-27 02:40:00,29.5,27.2,29.71,North,355,3.0,9.0,91,0.00,,---,0.00,0.00,VWS V14.01,2013-02-27 08:40:00,
2013-02-27 02:45:00,29.5,27.2,29.71,North,5,5.0,9.0,91,0.00,,---,0.00,0.00,VWS V14.01,2013-02-27 08:45:00,
2013-02-27 02:50:00,29.5,27.2,29.70,NE,38,3.0,9.0,91,0.00,,---,0.00,0.00,VWS V14.01,2013-02-27 08:50:00,
2013-02-27 02:55:00,29.5,27.2,29.70,North,5,3.0,9.0,91,0.00,,---,0.00,0.00,VWS V14.01,2013-02-27 08:55:00,
2013-02-27 03:00:00,29.6,27.3,29.70,NNE,22,5.0,6.0,91,0.00,,---,0.00,0.00,VWS V14.01,2013-02-27 09:00:00,
2013-02-27 03:05:00,29.6,27.3,29.70,NE,38,3.0,6.0,91,0.00,,---,0.00,0.00,VWS V14.01,2013-02-27 09:05:00,
2013-02-27 03:10:00,29.6,27.3,29.70,NNE,26,3.0,6.0,91,0.00,,---,0.00,0.00,VWS V14.01,2013-02-27 09:10:00,
2013-02-27 03:15:00,29.5,27.2,29.70,NE,36,3.0,7.0,91,0.00,,---,0.00,0.00,VWS V14.01,2013-02-27 09:15:00,
2013-02-27 03:20:00,29.5,27.2,29.70,NNE,19,2.0,7.0,91,0.00,,---,0.00,0.00,VWS V14.01,2013-02-27 09:20:00,
2013-02-27 03:25:00,29.5,27.2,29.69,North,9,4.0,9.0,91,0.00,,---,0.00,0.00,VWS V14.01,2013-02-27 09:25:00,
2013-02-27 03:30:00,29.6,27.0,29.69,North,5,3.0,9.0,90,0.00,,---,0.00,0.00,VWS V14.01,2013-02-27 09:30:00,
2013-02-27 03:35:00,29.6,27.0,29.69,North,355,4.0,9.0,90,0.00,,---,0.00,0.00,VWS V14.01,2013-02-27 09:35:00,
2013-02-27 03:40:00,29.6,27.0,29.69,NNE,25,3.0,9.0,90,0.00,,---,0.00,0.00,VWS V14.01,2013-02-27 09:40:00,
2013-02-27 03:45:00,29.6,27.0,29.69,NNE,32,4.0,10.0,90,0.00,,---,0.00,0.00,VWS V14.01,2013-02-27 09:45:00,
2013-02-27 03:50:00,29.6,27.0,29.69,North,5,6.0,10.0,90,0.00,,---,0.00,0.00,VWS V14.01,2013-02-27 09:50:00,
2013-02-27 03:55:00,29.6,27.0,29.69,NNE,28,5.0,10.0,90,0.00,,---,0.00,0.00,VWS V14.01,2013-02-27 09:55:00,
2013-02-27 04:00:00,29.6,27.0,29.69,NNE,30,3.0,5.0,90,0.00,,---,0.00,0.00,VWS V14.01,2013-02-27 10:00:00,
2013-02-27 04:05:00,29.6,27.0,29.69,NNE,24,3.0,5.0,90,0.00,,---,0.00,0.00,VWS V14.01,2013-02-27 10:05:00,
2013-02-27 04:10:00,29.5,26.9,29.69,NNE,14,3.0,8.0,90,0.00,,---,0.00,0.00,VWS V14.01,2013-02-27 10:10:00,
2013-02-27 04:15:00,29.5,26.9,29.69,NNE,13,5.0,9.0,90,0.00,,---,0.00,0.00,VWS V14.01,2013-02-27 10:15:00,
2013-02-27 04:20:00,29.4,27.1,29.70,North,10,1.0,9.0,91,0.00,,---,0.00,0.00,VWS V14.01,2013-02-27 10:20:00,
2013-02-27 04:25:00,29.3,27.0,29.69,NNE,28,2.0,10.0,91,0.00,,---,0.00,0.00,VWS V14.01,2013-02-27 10:25:00,
2013-02-27 04:30:00,29.2,26.9,29.69,North,355,2.0,10.0,91,0.00,,---,0.00,0.00,VWS V14.01,2013-02-27 10:30:00,
2013-02-27 04:35:00,29.1,27.1,29.69,North,5,4.0,10.0,92,0.00,,---,0.00,0.00,VWS V14.01,2013-02-27 10:35:00,
2013-02-27 04:40:00,29.0,27.0,29.69,NNW,347,3.0,10.0,92,0.00,,---,0.00,0.00,VWS V14.01,2013-02-27 10:40:00,
2013-02-27 04:45:00,28.9,26.9,29.69,NNE,26,2.0,10.0,92,0.00,,---,0.00,0.00,VWS V14.01,2013-02-27 10:45:00,
2013-02-27 04:50:00,28.8,27.0,29.69,NNE,13,4.0,10.0,93,0.00,,---,0.00,0.00,VWS V14.01,2013-02-27 10:50:00,
2013-02-27 04:55:00,28.8,27.0,29.69,NNW,348,4.0,10.0,93,0.00,,---,0.00,0.00,VWS V14.01,2013-02-27 10:55:00,
2013-02-27 05:00:00,28.8,27.0,29.69,NNW,344,6.0,6.0,93,0.00,,---,0.00,0.00,VWS V14.01,2013-02-27 11:00:00,
2013-02-27 05:05:00,28.7,26.9,29.69,NNW,347,4.0,6.0,93,0.00,,---,0.00,0.00,VWS V14.01,2013-02-27 11:05:00,
2013-02-27 05:10:00,28.7,26.9,29.69,North,349,5.0,6.0,93,0.00,,---,0.00,0.00,VWS V14.01,2013-02-27 11:10:00,
2013-02-27 05:15:00,28.7,26.9,29.69,NNE,20,0.0,8.0,93,0.00,,---,0.00,0.00,VWS V14.01,2013-02-27 11:15:00,
2013-02-27 05:20:00,28.6,27.1,29.69,NNE,12,3.0,8.0,94,0.00,,---,0.00,0.00,VWS V14.01,2013-02-27 11:20:00,
2013-02-27 05:25:00,28.6,27.1,29.69,NNW,332,2.0,8.0,94,0.00,,---,0.00,0.00,VWS V14.01,2013-02-27 11:25:00,
2013-02-27 05:30:00,28.6,27.1,29.69,North,11,2.0,8.0,94,0.00,,---,0.00,0.00,VWS V14.01,2013-02-27 11:30:00,
2013-02-27 05:35:00,28.6,27.1,29.69,NNE,30,6.0,9.0,94,0.00,,---,0.00,0.00,VWS V14.01,2013-02-27 11:35:00,
2013-02-27 05:40:00,28.6,27.1,29.69,NNE,17,5.0,10.0,94,0.00,,---,0.00,0.00,VWS V14.01,2013-02-27 11:40:00,
2013-02-27 05:45:00,28.7,27.2,29.69,North,5,3.0,10.0,94,0.00,,---,0.00,0.00,VWS V14.01,2013-02-27 11:45:00,
2013-02-27 05:50:00,28.7,27.2,29.69,North,5,4.0,10.0,94,0.00,,---,0.00,0.00,VWS V14.01,2013-02-27 11:50:00,
2013-02-27 05:55:00,28.7,27.2,29.69,NNE,28,3.0,10.0,94,0.00,,---,0.00,0.00,VWS V14.01,2013-02-27 11:55:00,
2013-02-27 06:00:00,28.7,27.2,29.69,North,360,6.0,6.0,94,0.00,,---,0.00,0.00,VWS V14.01,2013-02-27 12:00:00,
2013-02-27 06:05:00,28.7,27.2,29.69,NE,39,4.0,6.0,94,0.00,,---,0.00,0.00,VWS V14.01,2013-02-27 12:05:00,
2013-02-27 06:10:00,28.7,27.2,29.69,NNE,30,2.0,6.0,94,0.00,,---,0.00,0.00,VWS V14.01,2013-02-27 12:10:00,
2013-02-27 06:15:00,28.7,27.2,29.69,North,5,4.0,8.0,94,0.00,,---,0.00,0.00,VWS V14.01,2013-02-27 12:15:00,
2013-02-27 06:20:00,28.7,27.2,29.69,NNW,344,3.0,8.0,94,0.00,,---,0.00,0.00,VWS V14.01,2013-02-27 12:20:00,
2013-02-27 06:25:00,28.7,27.2,29.69,North,5,3.0,12.0,94,0.00,,---,0.00,0.00,VWS V14.01,2013-02-27 12:25:00,
2013-02-27 06:30:00,28.7,27.2,29.69,North,5,3.0,12.0,94,0.00,,---,0.00,0.00,VWS V14.01,2013-02-27 12:30:00,
2013-02-27 06:35:00,28.8,27.3,29.69,NNE,15,3.0,12.0,94,0.00,,---,0.00,0.00,VWS V14.01,2013-02-27 12:35:00,
2013-02-27 06:40:00,28.8,27.3,29.69,NNE,19,4.0,12.0,94,0.00,,---,0.00,0.00,VWS V14.01,2013-02-27 12:40:00,
2013-02-27 06:45:00,28.9,27.4,29.69,North,10,4.0,12.0,94,0.00,,---,0.00,0.00,VWS V14.01,2013-02-27 12:45:00,
2013-02-27 06:50:00,28.9,27.4,29.69,NNE,13,4.0,12.0,94,0.00,,---,0.00,7.00,VWS V14.01,2013-02-27 12:50:00,
2013-02-27 06:55:00,29.0,27.5,29.69,NNE,32,2.0,12.0,94,0.00,,---,0.00,9.00,VWS V14.01,2013-02-27 12:55:00,
2013-02-27 07:00:00,29.0,27.5,29.69,NW,325,4.0,8.0,94,0.00,,---,0.00,11.00,VWS V14.01,2013-02-27 13:00:00,
2013-02-27 07:05:00,29.1,27.6,29.69,NNW,340,6.0,8.0,94,0.00,,---,0.00,11.00,VWS V14.01,2013-02-27 13:05:00,
2013-02-27 07:10:00,29.2,27.7,29.70,NNE,15,5.0,9.0,94,0.00,,---,0.00,12.00,VWS V14.01,2013-02-27 13:10:00,
2013-02-27 07:15:00,29.3,27.8,29.70,North,11,5.0,9.0,94,0.00,,---,0.00,14.00,VWS V14.01,2013-02-27 13:15:00,
2013-02-27 07:20:00,29.3,27.8,29.70,North,355,5.0,9.0,94,0.00,,---,0.00,19.00,VWS V14.01,2013-02-27 13:20:00,
2013-02-27 07:25:00,29.4,27.6,29.70,NNW,343,4.0,9.0,93,0.00,,---,0.00,19.00,VWS V14.01,2013-02-27 13:25:00,
2013-02-27 07:30:00,29.5,28.0,29.70,NNW,348,4.0,9.0,94,0.00,,---,0.00,19.00,VWS V14.01,2013-02-27 13:30:00,
2013-02-27 07:35:00,29.5,27.7,29.70,NNE,30,1.0,9.0,93,0.00,,---,0.00,19.00,VWS V14.01,2013-02-27 13:35:00,
2013-02-27 07:40:00,29.6,27.8,29.70,NNE,29,9.0,9.0,93,0.00,,---,0.00,19.00,VWS V14.01,2013-02-27 13:40:00,
2013-02-27 07:45:00,29.6,27.8,29.70,North,9,6.0,9.0,93,0.00,,---,0.00,19.00,VWS V14.01,2013-02-27 13:45:00,
2013-02-27 07:50:00,29.6,27.8,29.70,NNE,32,5.0,9.0,93,0.00,,---,0.00,21.00,VWS V14.01,2013-02-27 13:50:00,
2013-02-27 07:55:00,29.7,27.9,29.70,NE,36,3.0,9.0,93,0.00,,---,0.00,23.00,VWS V14.01,2013-02-27 13:55:00,
2013-02-27 08:00:00,29.7,27.9,29.70,NNE,16,3.0,3.0,93,0.00,,---,0.00,25.00,VWS V14.01,2013-02-27 14:00:00,
2013-02-27 08:05:00,29.8,28.0,29.70,North,360,4.0,7.0,93,0.00,,---,0.00,30.00,VWS V14.01,2013-02-27 14:05:00,
2013-02-27 08:10:00,29.9,28.1,29.70,NNE,17,3.0,9.0,93,0.00,,---,0.00,28.00,VWS V14.01,2013-02-27 14:10:00,
2013-02-27 08:15:00,29.9,28.1,29.71,NNW,346,7.0,9.0,93,0.00,,---,0.00,26.00,VWS V14.01,2013-02-27 14:15:00,
2013-02-27 08:20:00,30.0,28.2,29.71,North,11,4.0,9.0,93,0.00,,---,0.00,35.00,VWS V14.01,2013-02-27 14:20:00,
2013-02-27 08:25:00,30.1,28.1,29.71,North,5,3.0,9.0,92,0.00,,---,0.00,42.00,VWS V14.01,2013-02-27 14:25:00,
2013-02-27 08:30:00,30.2,28.2,29.71,NNE,24,2.0,10.0,92,0.00,,---,0.00,49.00,VWS V14.01,2013-02-27 14:30:00,
2013-02-27 08:35:00,30.3,28.3,29.71,NW,317,7.0,10.0,92,0.00,,---,0.00,54.00,VWS V14.01,2013-02-27 14:35:00,
2013-02-27 08:40:00,30.3,28.3,29.70,NNE,27,2.0,10.0,92,0.00,,---,0.00,69.00,VWS V14.01,2013-02-27 14:40:00,
2013-02-27 08:45:00,30.5,28.5,29.71,NNE,18,6.0,11.0,92,0.00,,---,0.00,91.00,VWS V14.01,2013-02-27 14:45:00,
2013-02-27 08:50:00,30.6,28.6,29.71,NE,50,5.0,11.0,92,0.00,,---,0.00,114.00,VWS V14.01,2013-02-27 14:50:00,
2013-02-27 08:55:00,30.6,28.6,29.71,NE,34,5.0,11.0,92,0.00,,---,0.00,104.00,VWS V14.01,2013-02-27 14:55:00,
2013-02-27 09:00:00,30.7,28.7,29.71,NNE,15,4.0,6.0,92,0.00,,---,0.00,90.00,VWS V14.01,2013-02-27 15:00:00,
2013-02-27 09:05:00,30.7,28.7,29.71,North,5,3.0,7.0,92,0.00,,---,0.00,98.00,VWS V14.01,2013-02-27 15:05:00,
2013-02-27 09:10:00,30.8,28.8,29.70,NNE,24,4.0,9.0,92,0.00,,---,0.00,100.00,VWS V14.01,2013-02-27 15:10:00,
2013-02-27 09:15:00,30.8,28.8,29.71,NE,42,6.0,9.0,92,0.00,,---,0.00,107.00,VWS V14.01,2013-02-27 15:15:00,
2013-02-27 09:20:00,30.9,28.6,29.71,NNE,29,2.0,9.0,91,0.00,,---,0.00,104.00,VWS V14.01,2013-02-27 15:20:00,
2013-02-27 09:25:00,31.0,28.7,29.70,North,355,7.0,9.0,91,0.00,,---,0.00,93.00,VWS V14.01,2013-02-27 15:25:00,
2013-02-27 09:30:00,31.0,28.7,29.70,North,350,3.0,12.0,91,0.00,,---,0.00,98.00,VWS V14.01,2013-02-27 15:30:00,
2013-02-27 09:35:00,31.1,28.8,29.71,NNE,31,7.0,12.0,91,0.00,,---,0.00,88.00,VWS V14.01,2013-02-27 15:35:00,
2013-02-27 09:40:00,31.1,28.5,29.71,NNE,16,4.0,12.0,90,0.00,,---,0.00,76.00,VWS V14.01,2013-02-27 15:40:00,
2013-02-27 09:45:00,31.1,28.5,29.70,NNE,23,4.0,12.0,90,0.00,,---,0.00,74.00,VWS V14.01,2013-02-27 15:45:00,
2013-02-27 09:50:00,31.2,28.6,29.70,NNW,331,7.0,12.0,90,0.00,,---,0.00,76.00,VWS V14.01,2013-02-27 15:50:00,
2013-02-27 09:55:00,31.3,28.4,29.70,NNW,344,4.0,12.0,89,0.00,,---,0.00,86.00,VWS V14.01,2013-02-27 15:55:00,
2013-02-27 10:00:00,31.3,28.4,29.70,NNE,25,4.0,5.0,89,0.00,,---,0.00,98.00,VWS V14.01,2013-02-27 16:00:00,
2013-02-27 10:05:00,31.4,28.5,29.70,North,5,4.0,6.0,89,0.00,,---,0.00,111.00,VWS V14.01,2013-02-27 16:05:00,
2013-02-27 10:10:00,31.5,28.6,29.70,North,5,4.0,9.0,89,0.00,,---,0.00,116.00,VWS V14.01,2013-02-27 16:10:00,
2013-02-27 10:15:00,31.6,28.5,29.70,NE,39,5.0,9.0,88,0.00,,---,0.00,132.00,VWS V14.01,2013-02-27 16:15:00,
2013-02-27 10:20:00,31.8,28.7,29.70,NNE,21,3.0,10.0,88,0.00,,---,0.00,151.00,VWS V14.01,2013-02-27 16:20:00,
2013-02-27 10:25:00,31.7,28.6,29.70,NE,35,3.0,10.0,88,0.00,,---,0.00,149.00,VWS V14.01,2013-02-27 16:25:00,
2013-02-27 10:30:00,31.8,28.9,29.70,NE,34,1.0,13.0,89,0.00,,---,0.00,158.00,VWS V14.01,2013-02-27 16:30:00,
2013-02-27 10:35:00,31.9,29.0,29.70,NNW,344,4.0,13.0,89,0.00,,---,0.00,174.00,VWS V14.01,2013-02-27 16:35:00,
2013-02-27 10:40:00,32.1,29.2,29.70,NNE,22,1.0,13.0,89,0.00,,---,0.00,193.00,VWS V14.01,2013-02-27 16:40:00,
2013-02-27 10:45:00,32.3,29.4,29.70,North,355,5.0,13.0,89,0.00,,---,0.00,178.00,VWS V14.01,2013-02-27 16:45:00,
2013-02-27 10:50:00,32.4,29.2,29.70,NNE,22,3.0,13.0,88,0.00,,---,0.00,183.00,VWS V14.01,2013-02-27 16:50:00,
2013-02-27 10:55:00,32.5,29.4,29.70,NNE,22,3.0,13.0,88,0.00,,---,0.00,153.00,VWS V14.01,2013-02-27 16:55:00,
2013-02-27 11:00:00,32.5,29.4,29.70,NNE,31,4.0,5.0,88,0.00,,---,0.00,135.00,VWS V14.01,2013-02-27 17:00:00,
2013-02-27 11:05:00,32.4,29.2,29.70,North,5,3.0,5.0,88,0.00,,---,0.00,116.00,VWS V14.01,2013-02-27 17:05:00,
2013-02-27 11:10:00,32.3,28.9,29.70,NNE,32,3.0,6.0,87,0.00,,---,0.00,98.00,VWS V14.01,2013-02-27 17:10:00,
2013-02-27 11:15:00,32.2,28.8,29.71,NNE,25,3.0,8.0,87,0.00,,---,0.00,83.00,VWS V14.01,2013-02-27 17:15:00,
2013-02-27 11:20:00,32.1,28.7,29.71,NNW,342,6.0,8.0,87,0.00,,---,0.00,79.00,VWS V14.01,2013-02-27 17:20:00,
2013-02-27 11:25:00,32.1,28.7,29.70,North,5,3.0,8.0,87,0.00,,---,0.00,90.00,VWS V14.01,2013-02-27 17:25:00,
2013-02-27 11:30:00,32.0,28.6,29.70,NNE,14,4.0,9.0,87,0.00,,---,0.00,104.00,VWS V14.01,2013-02-27 17:30:00,
2013-02-27 11:35:00,32.0,28.9,29.71,North,355,1.0,9.0,88,0.00,,---,0.00,130.00,VWS V14.01,2013-02-27 17:35:00,
2013-02-27 11:40:00,32.1,29.0,29.70,NNE,17,3.0,9.0,88,0.00,,---,0.00,141.00,VWS V14.01,2013-02-27 17:40:00,
2013-02-27 11:45:00,32.2,29.0,29.71,North,5,3.0,9.0,88,0.00,,---,0.00,149.00,VWS V14.01,2013-02-27 17:45:00,
2013-02-27 11:50:00,32.3,29.1,29.71,North,349,6.0,9.0,88,0.00,,---,0.00,160.00,VWS V14.01,2013-02-27 17:50:00,
2013-02-27 11:55:00,32.3,29.1,29.71,North,360,4.0,9.0,88,0.00,,---,0.00,181.00,VWS V14.01,2013-02-27 17:55:00,
2013-02-27 12:00:00,32.4,29.2,29.71,NNE,26,4.0,7.0,88,0.00,,---,0.00,181.00,VWS V14.01,2013-02-27 18:00:00,
2013-02-27 12:05:00,32.6,29.5,29.71,NNE,23,4.0,9.0,88,0.00,,---,0.00,151.00,VWS V14.01,2013-02-27 18:05:00,
2013-02-27 12:10:00,32.6,29.2,29.71,NNE,15,5.0,10.0,87,0.00,,---,0.00,148.00,VWS V14.01,2013-02-27 18:10:00,
2013-02-27 12:15:00,32.6,29.2,29.70,North,349,5.0,10.0,87,0.00,,---,0.00,163.00,VWS V14.01,2013-02-27 18:15:00,
2013-02-27 12:19:00,32.6,29.2,29.71,NNW,340,4.0,11.0,87,0.00,,---,0.00,174.00,VWS V14.01,2013-02-27 18:19:00,
2013-02-27 12:24:00,32.7,29.3,29.70,NNE,13,6.0,11.0,87,0.00,,---,0.00,179.00,VWS V14.01,2013-02-27 18:24:00,
2013-02-27 12:30:00,32.8,29.4,29.70,North,360,7.0,11.0,87,0.00,,---,0.00,169.00,VWS V14.01,2013-02-27 18:30:00,
2013-02-27 12:34:00,32.8,29.4,29.70,North,355,2.0,11.0,87,0.00,,---,0.00,174.00,VWS V14.01,2013-02-27 18:34:00,
2013-02-27 12:39:00,32.9,29.5,29.70,NNW,329,6.0,11.0,87,0.00,,---,0.00,172.00,VWS V14.01,2013-02-27 18:39:00,
2013-02-27 12:44:00,32.9,29.5,29.70,NNE,26,2.0,11.0,87,0.00,,---,0.00,178.00,VWS V14.01,2013-02-27 18:44:00,
2013-02-27 12:49:00,33.0,29.6,29.70,North,10,3.0,11.0,87,0.00,,---,0.00,183.00,VWS V14.01,2013-02-27 18:49:00,
2013-02-27 12:54:00,33.0,29.6,29.70,North,11,3.0,11.0,87,0.01,,---,0.01,174.00,VWS V14.01,2013-02-27 18:54:00,
2013-02-27 12:59:00,33.1,29.7,29.70,NNE,24,8.0,8.0,87,0.01,,---,0.01,179.00,VWS V14.01,2013-02-27 18:59:00,
2013-02-27 13:00:00,33.1,29.7,29.70,North,5,5.0,11.0,87,0.01,,---,0.01,183.00,VWS V14.01,2013-02-27 19:00:00,
2013-02-27 13:04:00,33.0,29.3,29.70,NNW,336,5.0,8.0,86,0.01,,---,0.01,165.00,VWS V14.01,2013-02-27 19:04:00,
2013-02-27 13:09:00,33.1,29.4,29.70,NW,322,6.0,10.0,86,0.01,,---,0.01,181.00,VWS V14.01,2013-02-27 19:09:00,
2013-02-27 13:14:00,33.0,29.3,29.70,NE,37,2.0,10.0,86,0.01,,---,0.01,167.00,VWS V14.01,2013-02-27 19:14:00,
2013-02-27 13:19:00,33.2,29.5,29.70,NNE,19,4.0,10.0,86,0.01,,---,0.01,155.00,VWS V14.01,2013-02-27 19:19:00,
2013-02-27 13:24:00,33.3,29.6,29.70,NE,38,3.0,10.0,86,0.01,,---,0.01,186.00,VWS V14.01,2013-02-27 19:24:00,
2013-02-27 13:29:00,33.3,29.6,29.70,NNE,19,2.0,10.0,86,0.01,,---,0.01,204.00,VWS V14.01,2013-02-27 19:29:00,
2013-02-27 13:34:00,33.4,29.7,29.70,North,355,4.0,10.0,86,0.02,,---,0.02,239.00,VWS V14.01,2013-02-27 19:34:00,
2013-02-27 13:39:00,33.5,29.8,29.70,NNE,30,5.0,10.0,86,0.02,,---,0.02,258.00,VWS V14.01,2013-02-27 19:39:00,
2013-02-27 13:44:00,33.7,30.2,29.70,NNW,346,6.0,10.0,87,0.02,,---,0.02,292.00,VWS V14.01,2013-02-27 19:44:00,
2013-02-27 13:49:00,33.8,30.4,29.70,North,5,4.0,10.0,87,0.02,,---,0.02,290.00,VWS V14.01,2013-02-27 19:49:00,
2013-02-27 13:54:00,33.9,30.2,29.70,NNE,12,5.0,10.0,86,0.02,,---,0.02,288.00,VWS V14.01,2013-02-27 19:54:00,
2013-02-27 13:59:00,33.9,30.2,29.70,NNE,23,3.0,4.0,86,0.01,,---,0.02,269.00,VWS V14.01,2013-02-27 19:59:00,
2013-02-27 14:00:00,33.9,30.2,29.70,NNE,23,4.0,10.0,86,0.02,,---,0.02,269.00,VWS V14.01,2013-02-27 20:00:00,
2013-02-27 14:04:00,33.9,30.2,29.70,NNE,20,3.0,9.0,86,0.02,,---,0.03,260.00,VWS V14.01,2013-02-27 20:04:00,
2013-02-27 14:09:00,34.1,30.6,29.70,NNE,21,2.0,9.0,87,0.02,,---,0.03,274.00,VWS V14.01,2013-02-27 20:09:00,
2013-02-27 14:14:00,34.1,30.4,29.70,NNE,31,6.0,9.0,86,0.02,,---,0.03,302.00,VWS V14.01,2013-02-27 20:14:00,
2013-02-27 14:19:00,34.2,30.5,29.70,NW,318,7.0,9.0,86,0.02,,---,0.03,276.00,VWS V14.01,2013-02-27 20:19:00,
2013-02-27 14:24:00,34.2,30.5,29.71,North,360,5.0,9.0,86,0.02,,---,0.03,234.00,VWS V14.01,2013-02-27 20:24:00,
2013-02-27 14:29:00,34.0,30.3,29.71,NNE,12,4.0,9.0,86,0.02,,---,0.03,200.00,VWS V14.01,2013-02-27 20:29:00,
2013-02-27 14:34:00,33.9,30.2,29.71,NNE,14,4.0,10.0,86,0.02,,---,0.03,162.00,VWS V14.01,2013-02-27 20:34:00,
2013-02-27 14:39:00,33.9,30.2,29.71,North,355,3.0,10.0,86,0.03,,---,0.04,109.00,VWS V14.01,2013-02-27 20:39:00,
2013-02-27 14:44:00,33.8,30.1,29.71,NNE,27,2.0,10.0,86,0.03,,---,0.04,98.00,VWS V14.01,2013-02-27 20:44:00,
2013-02-27 14:49:00,33.7,29.7,29.72,NNW,342,3.0,10.0,85,0.03,,---,0.04,114.00,VWS V14.01,2013-02-27 20:49:00,
2013-02-27 14:54:00,33.7,29.7,29.72,NNE,14,5.0,10.0,85,0.03,,---,0.04,116.00,VWS V14.01,2013-02-27 20:54:00,
2013-02-27 14:59:00,33.7,29.4,29.72,North,355,3.0,5.0,84,0.02,,---,0.04,109.00,VWS V14.01,2013-02-27 20:59:00,
2013-02-27 15:00:00,33.7,29.4,29.72,North,355,5.0,10.0,84,0.03,,---,0.04,109.00,VWS V14.01,2013-02-27 21:00:00,
2013-02-27 15:04:00,33.7,29.4,29.72,NNE,27,4.0,9.0,84,0.02,,---,0.04,91.00,VWS V14.01,2013-02-27 21:04:00,
2013-02-27 15:09:00,33.7,29.4,29.72,North,5,3.0,9.0,84,0.02,,---,0.04,84.00,VWS V14.01,2013-02-27 21:09:00,
2013-02-27 15:14:00,33.7,29.4,29.73,NNE,15,3.0,9.0,84,0.02,,---,0.04,111.00,VWS V14.01,2013-02-27 21:14:00,
2013-02-27 15:19:00,33.8,29.5,29.73,NNE,22,6.0,9.0,84,0.02,,---,0.04,139.00,VWS V14.01,2013-02-27 21:19:00,
2013-02-27 15:24:00,33.8,29.5,29.72,NNW,348,7.0,9.0,84,0.02,,---,0.04,135.00,VWS V14.01,2013-02-27 21:24:00,
2013-02-27 15:29:00,33.9,29.6,29.72,NE,44,3.0,10.0,84,0.02,,---,0.04,130.00,VWS V14.01,2013-02-27 21:29:00,
2013-02-27 15:34:00,33.9,29.6,29.72,NNW,337,3.0,10.0,84,0.02,,---,0.04,134.00,VWS V14.01,2013-02-27 21:34:00,
2013-02-27 15:39:00,33.9,29.6,29.73,NNW,348,4.0,10.0,84,0.02,,---,0.04,127.00,VWS V14.01,2013-02-27 21:39:00,
2013-02-27 15:44:00,33.9,29.9,29.73,NNE,20,7.0,10.0,85,0.02,,---,0.04,107.00,VWS V14.01,2013-02-27 21:44:00,
2013-02-27 15:49:00,33.8,29.8,29.73,NNW,342,2.0,10.0,85,0.02,,---,0.04,105.00,VWS V14.01,2013-02-27 21:49:00,
2013-02-27 15:54:00,33.7,30.0,29.73,NNW,344,7.0,10.0,86,0.02,,---,0.04,105.00,VWS V14.01,2013-02-27 21:54:00,
2013-02-27 15:59:00,33.6,29.9,29.73,North,9,3.0,3.0,86,0.00,,---,0.04,84.00,VWS V14.01,2013-02-27 21:59:00,
2013-02-27 16:00:00,33.6,29.9,29.73,North,9,3.0,10.0,86,0.02,,---,0.04,84.00,VWS V14.01,2013-02-27 22:00:00,
2013-02-27 16:04:00,33.5,30.0,29.74,NE,34,3.0,4.0,87,0.00,,---,0.04,81.00,VWS V14.01,2013-02-27 22:04:00,
2013-02-27 16:09:00,33.5,30.0,29.74,North,355,3.0,5.0,87,0.00,,---,0.04,65.00,VWS V14.01,2013-02-27 22:09:00,
2013-02-27 16:14:00,33.5,30.3,29.74,NNE,21,3.0,6.0,88,0.00,,---,0.04,67.00,VWS V14.01,2013-02-27 22:14:00,
2013-02-27 16:19:00,33.4,30.2,29.74,NW,318,5.0,6.0,88,0.00,,---,0.04,69.00,VWS V14.01,2013-02-27 22:19:00,
2013-02-27 16:24:00,33.4,30.2,29.74,North,355,3.0,7.0,88,0.00,,---,0.04,60.00,VWS V14.01,2013-02-27 22:24:00,
2013-02-27 16:29:00,33.3,30.4,29.75,North,349,1.0,9.0,89,0.00,,---,0.04,60.00,VWS V14.01,2013-02-27 22:29:00,
2013-02-27 16:34:00,33.3,30.4,29.75,NNW,344,2.0,9.0,89,0.00,,---,0.04,49.00,VWS V14.01,2013-02-27 22:34:00,
2013-02-27 16:39:00,33.2,30.3,29.75,North,5,7.0,9.0,89,0.00,,---,0.04,42.00,VWS V14.01,2013-02-27 22:39:00,
2013-02-27 16:44:00,33.0,30.4,29.75,North,360,3.0,9.0,90,0.00,,---,0.04,40.00,VWS V14.01,2013-02-27 22:44:00,
2013-02-27 16:49:00,32.9,30.3,29.75,North,5,3.0,9.0,90,0.00,,---,0.04,47.00,VWS V14.01,2013-02-27 22:49:00,
2013-02-27 16:54:00,32.8,30.5,29.75,North,360,3.0,9.0,91,0.00,,---,0.04,51.00,VWS V14.01,2013-02-27 22:54:00,
2013-02-27 16:59:00,32.8,30.5,29.76,North,360,2.0,2.0,91,0.01,,---,0.05,37.00,VWS V14.01,2013-02-27 22:59:00,
2013-02-27 17:00:00,32.8,30.5,29.75,NNW,347,2.0,9.0,91,0.01,,---,0.05,37.00,VWS V14.01,2013-02-27 23:00:00,
2013-02-27 17:04:00,32.7,30.4,29.76,NNW,336,4.0,6.0,91,0.01,,---,0.05,26.00,VWS V14.01,2013-02-27 23:04:00,
2013-02-27 17:09:00,32.6,30.5,29.76,NE,40,1.0,7.0,92,0.01,,---,0.05,25.00,VWS V14.01,2013-02-27 23:09:00,
2013-02-27 17:14:00,32.6,30.5,29.76,NNW,332,3.0,7.0,92,0.01,,---,0.05,18.00,VWS V14.01,2013-02-27 23:14:00,
2013-02-27 17:19:00,32.5,30.4,29.76,North,5,2.0,7.0,92,0.01,,---,0.05,16.00,VWS V14.01,2013-02-27 23:19:00,
2013-02-27 17:24:00,32.5,30.4,29.76,NNE,17,3.0,7.0,92,0.01,,---,0.05,12.00,VWS V14.01,2013-02-27 23:24:00,
2013-02-27 17:29:00,32.5,30.4,29.76,NNW,348,4.0,7.0,92,0.01,,---,0.05,12.00,VWS V14.01,2013-02-27 23:29:00,
2013-02-27 17:34:00,32.4,30.3,29.77,North,5,4.0,7.0,92,0.01,,---,0.05,12.00,VWS V14.01,2013-02-27 23:34:00,
2013-02-27 17:39:00,32.4,30.3,29.77,NNW,338,6.0,9.0,92,0.01,,---,0.05,11.00,VWS V14.01,2013-02-27 23:39:00,
2013-02-27 17:44:00,32.4,30.3,29.77,North,5,4.0,9.0,92,0.01,,---,0.05,5.00,VWS V14.01,2013-02-27 23:44:00,
2013-02-27 17:49:00,32.4,30.3,29.77,North,355,2.0,9.0,92,0.01,,---,0.05,0.00,VWS V14.01,2013-02-27 23:49:00,
2013-02-27 17:54:00,32.4,30.6,29.77,North,350,8.0,9.0,93,0.01,,---,0.05,0.00,VWS V14.01,2013-02-27 23:54:00,
2013-02-27 17:59:00,32.4,30.3,29.78,NNE,18,2.0,5.0,92,0.00,,---,0.05,0.00,VWS V14.01,2013-02-27 23:59:00,
2013-02-27 18:00:00,32.4,30.3,29.78,NNE,18,5.0,10.0,92,0.01,,---,0.05,0.00,VWS V14.01,2013-02-28 00:00:00,
2013-02-27 18:04:00,32.4,30.6,29.78,NNW,330,4.0,5.0,93,0.00,,---,0.05,0.00,VWS V14.01,2013-02-28 00:04:00,
2013-02-27 18:09:00,32.4,30.6,29.78,North,5,4.0,6.0,93,0.00,,---,0.05,0.00,VWS V14.01,2013-02-28 00:09:00,
2013-02-27 18:14:00,32.4,30.6,29.78,North,5,4.0,8.0,93,0.00,,---,0.05,0.00,VWS V14.01,2013-02-28 00:14:00,
2013-02-27 18:19:00,32.3,30.5,29.78,NNW,342,2.0,9.0,93,0.00,,---,0.05,0.00,VWS V14.01,2013-02-28 00:19:00,
2013-02-27 18:24:00,32.4,30.6,29.78,NNW,338,3.0,9.0,93,0.00,,---,0.05,0.00,VWS V14.01,2013-02-28 00:24:00,
2013-02-27 18:29:00,32.4,30.6,29.79,North,360,7.0,9.0,93,0.00,,---,0.05,0.00,VWS V14.01,2013-02-28 00:29:00,
2013-02-27 18:34:00,32.4,30.6,29.79,North,355,2.0,9.0,93,0.00,,---,0.05,0.00,VWS V14.01,2013-02-28 00:34:00,
2013-02-27 18:39:00,32.4,30.6,29.79,NNE,33,3.0,9.0,93,0.00,,---,0.05,0.00,VWS V14.01,2013-02-28 00:39:00,
2013-02-27 18:44:00,32.4,30.3,29.79,North,351,6.0,9.0,92,0.00,,---,0.05,0.00,VWS V14.01,2013-02-28 00:44:00,
2013-02-27 18:49:00,32.5,30.4,29.79,North,5,4.0,9.0,92,0.00,,---,0.05,0.00,VWS V14.01,2013-02-28 00:49:00,
2013-02-27 18:54:00,32.5,30.7,29.79,NE,34,7.0,9.0,93,0.00,,---,0.05,0.00,VWS V14.01,2013-02-28 00:54:00,
2013-02-27 18:59:00,32.5,30.4,29.79,North,355,4.0,4.0,92,0.00,,---,0.05,0.00,VWS V14.01,2013-02-28 00:59:00,
2013-02-27 19:00:00,32.5,30.4,29.80,NNW,329,3.0,10.0,92,0.00,,---,0.05,0.00,VWS V14.01,2013-02-28 01:00:00,
2013-02-27 19:04:00,32.5,30.7,29.80,North,5,3.0,7.0,93,0.00,,---,0.05,0.00,VWS V14.01,2013-02-28 01:04:00,
2013-02-27 19:09:00,32.4,30.6,29.80,NNE,14,3.0,7.0,93,0.00,,---,0.05,0.00,VWS V14.01,2013-02-28 01:09:00,
2013-02-27 19:14:00,32.4,30.6,29.80,North,355,4.0,12.0,93,0.00,,---,0.05,0.00,VWS V14.01,2013-02-28 01:14:00,
2013-02-27 19:19:00,32.4,30.6,29.80,NNW,344,4.0,12.0,93,0.00,,---,0.05,0.00,VWS V14.01,2013-02-28 01:19:00,
2013-02-27 19:24:00,32.3,30.5,29.80,NNW,343,7.0,12.0,93,0.00,,---,0.05,0.00,VWS V14.01,2013-02-28 01:24:00,
2013-02-27 19:29:00,32.3,30.5,29.80,North,349,9.0,12.0,93,0.00,,---,0.05,0.00,VWS V14.01,2013-02-28 01:29:00,
2013-02-27 19:34:00,32.2,30.4,29.80,NNW,334,2.0,12.0,93,0.00,,---,0.05,0.00,VWS V14.01,2013-02-28 01:34:00,
2013-02-27 19:39:00,32.2,30.4,29.80,NNW,331,3.0,12.0,93,0.00,,---,0.05,0.00,VWS V14.01,2013-02-28 01:39:00,
2013-02-27 19:44:00,32.1,30.3,29.81,NE,41,3.0,12.0,93,0.00,,---,0.05,0.00,VWS V14.01,2013-02-28 01:44:00,
2013-02-27 19:49:00,32.1,30.3,29.80,North,355,5.0,12.0,93,0.00,,---,0.05,0.00,VWS V14.01,2013-02-28 01:49:00,
2013-02-27 19:54:00,32.1,30.3,29.81,North,355,5.0,12.0,93,0.00,,---,0.05,0.00,VWS V14.01,2013-02-28 01:54:00,
2013-02-27 19:59:00,32.1,30.3,29.81,North,355,5.0,5.0,93,0.00,,---,0.05,0.00,VWS V14.01,2013-02-28 01:59:00,
2013-02-27 20:00:00,32.1,30.6,29.81,NNW,344,5.0,12.0,94,0.00,,---,0.05,0.00,VWS V14.01,2013-02-28 02:00:00,
2013-02-27 20:04:00,32.1,30.6,29.81,NNW,348,4.0,6.0,94,0.00,,---,0.05,0.00,VWS V14.01,2013-02-28 02:04:00,
2013-02-27 20:09:00,32.0,30.5,29.81,North,351,3.0,10.0,94,0.00,,---,0.05,0.00,VWS V14.01,2013-02-28 02:09:00,
2013-02-27 20:14:00,32.0,30.5,29.81,NNE,27,4.0,10.0,94,0.00,,---,0.05,0.00,VWS V14.01,2013-02-28 02:14:00,
2013-02-27 20:19:00,32.0,30.2,29.81,NNW,348,3.0,11.0,93,0.00,,---,0.05,0.00,VWS V14.01,2013-02-28 02:19:00,
2013-02-27 20:24:00,32.0,30.2,29.81,NNE,15,4.0,11.0,93,0.00,,---,0.05,0.00,VWS V14.01,2013-02-28 02:24:00,
2013-02-27 20:29:00,32.0,30.2,29.81,North,355,5.0,11.0,93,0.00,,---,0.05,0.00,VWS V14.01,2013-02-28 02:29:00,
2013-02-27 20:34:00,32.0,30.2,29.81,NNE,20,6.0,11.0,93,0.00,,---,0.05,0.00,VWS V14.01,2013-02-28 02:34:00,
2013-02-27 20:39:00,32.1,30.3,29.81,NNE,22,6.0,11.0,93,0.00,,---,0.05,0.00,VWS V14.01,2013-02-28 02:39:00,
2013-02-27 20:44:00,32.1,30.3,29.81,NNE,19,6.0,11.0,93,0.00,,---,0.05,0.00,VWS V14.01,2013-02-28 02:44:00,
2013-02-27 20:49:00,32.0,30.2,29.81,NNW,334,5.0,11.0,93,0.00,,---,0.05,0.00,VWS V14.01,2013-02-28 02:49:00,
2013-02-27 20:54:00,32.0,30.2,29.82,NNE,27,1.0,11.0,93,0.00,,---,0.05,0.00,VWS V14.01,2013-02-28 02:54:00,
2013-02-27 20:59:00,32.0,30.2,29.82,NNE,27,2.0,2.0,93,0.00,,---,0.05,0.00,VWS V14.01,2013-02-28 02:59:00,
2013-02-27 21:00:00,32.0,30.2,29.82,NNE,27,2.0,12.0,93,0.00,,---,0.05,0.00,VWS V14.01,2013-02-28 03:00:00,
2013-02-27 21:04:00,32.0,30.2,29.82,NNW,343,4.0,8.0,93,0.00,,---,0.05,0.00,VWS V14.01,2013-02-28 03:04:00,
2013-02-27 21:09:00,32.0,30.2,29.82,North,360,3.0,9.0,93,0.00,,---,0.05,0.00,VWS V14.01,2013-02-28 03:09:00,
2013-02-27 21:14:00,31.9,30.1,29.82,North,355,5.0,9.0,93,0.00,,---,0.05,0.00,VWS V14.01,2013-02-28 03:14:00,
2013-02-27 21:19:00,31.9,30.1,29.82,North,355,5.0,9.0,93,0.00,,---,0.05,0.00,VWS V14.01,2013-02-28 03:19:00,
2013-02-27 21:24:00,31.9,30.1,29.82,North,355,4.0,9.0,93,0.00,,---,0.05,0.00,VWS V14.01,2013-02-28 03:24:00,
2013-02-27 21:29:00,31.9,29.8,29.82,NNW,341,4.0,9.0,92,0.00,,---,0.05,0.00,VWS V14.01,2013-02-28 03:29:00,
2013-02-27 21:34:00,32.0,29.9,29.82,NE,37,1.0,9.0,92,0.00,,---,0.05,0.00,VWS V14.01,2013-02-28 03:34:00,
2013-02-27 21:39:00,32.0,29.9,29.82,NNE,24,5.0,9.0,92,0.00,,---,0.05,0.00,VWS V14.01,2013-02-28 03:39:00,
2013-02-27 21:44:00,32.0,29.9,29.83,North,355,6.0,10.0,92,0.00,,---,0.05,0.00,VWS V14.01,2013-02-28 03:44:00,
2013-02-27 21:49:00,32.0,29.9,29.83,NNE,20,3.0,10.0,92,0.00,,---,0.05,0.00,VWS V14.01,2013-02-28 03:49:00,
2013-02-27 21:54:00,31.9,29.8,29.83,NNE,24,2.0,10.0,92,0.00,,---,0.05,0.00,VWS V14.01,2013-02-28 03:54:00,
2013-02-27 21:59:00,31.9,29.8,29.83,North,349,5.0,5.0,92,0.00,,---,0.05,0.00,VWS V14.01,2013-02-28 03:59:00,
2013-02-27 22:00:00,31.9,29.8,29.83,NNW,335,4.0,11.0,92,0.00,,---,0.05,0.00,VWS V14.01,2013-02-28 04:00:00,
2013-02-27 22:04:00,31.9,29.8,29.83,North,355,4.0,7.0,92,0.00,,---,0.05,0.00,VWS V14.01,2013-02-28 04:04:00,
2013-02-27 22:09:00,31.8,29.8,29.83,NNW,339,6.0,8.0,92,0.00,,---,0.05,0.00,VWS V14.01,2013-02-28 04:09:00,
2013-02-27 22:14:00,31.7,29.6,29.83,NNE,13,4.0,8.0,92,0.00,,---,0.05,0.00,VWS V14.01,2013-02-28 04:14:00,
2013-02-27 22:19:00,31.7,29.6,29.83,North,360,4.0,8.0,92,0.00,,---,0.05,0.00,VWS V14.01,2013-02-28 04:19:00,
2013-02-27 22:24:00,31.7,29.6,29.84,North,355,7.0,8.0,92,0.00,,---,0.05,0.00,VWS V14.01,2013-02-28 04:24:00,
2013-02-27 22:29:00,31.6,29.5,29.84,WNW,302,2.0,8.0,92,0.00,,---,0.05,0.00,VWS V14.01,2013-02-28 04:29:00,
2013-02-27 22:34:00,31.6,29.5,29.84,NNE,26,2.0,8.0,92,0.00,,---,0.05,0.00,VWS V14.01,2013-02-28 04:34:00,
2013-02-27 22:39:00,31.6,29.5,29.84,NNE,24,7.0,8.0,92,0.00,,---,0.05,0.00,VWS V14.01,2013-02-28 04:39:00,
2013-02-27 22:44:00,31.6,29.5,29.84,North,355,5.0,8.0,92,0.00,,---,0.05,0.00,VWS V14.01,2013-02-28 04:44:00,
2013-02-27 22:49:00,31.6,29.5,29.84,North,360,6.0,8.0,92,0.00,,---,0.05,0.00,VWS V14.01,2013-02-28 04:49:00,
2013-02-27 22:54:00,31.6,29.5,29.84,North,350,5.0,8.0,92,0.00,,---,0.05,0.00,VWS V14.01,2013-02-28 04:54:00,
2013-02-27 22:59:00,31.6,29.5,29.84,NNE,23,4.0,5.0,92,0.00,,---,0.05,0.00,VWS V14.01,2013-02-28 04:59:00,
2013-02-27 23:00:00,31.6,29.3,29.84,NNE,15,5.0,5.0,91,0.00,,---,0.05,0.00,VWS V14.01,2013-02-28 05:00:00,
2013-02-27 23:05:00,31.6,29.3,29.84,North,350,2.0,7.0,91,0.00,,---,0.05,0.00,VWS V14.01,2013-02-28 05:05:00,
2013-02-27 23:10:00,31.6,29.3,29.84,North,11,6.0,7.0,91,0.00,,---,0.05,0.00,VWS V14.01,2013-02-28 05:10:00,
2013-02-27 23:15:00,31.6,29.3,29.84,NE,40,7.0,9.0,91,0.00,,---,0.05,0.00,VWS V14.01,2013-02-28 05:15:00,
2013-02-27 23:20:00,31.6,29.3,29.84,North,360,5.0,9.0,91,0.00,,---,0.05,0.00,VWS V14.01,2013-02-28 05:20:00,
2013-02-27 23:25:00,31.6,29.3,29.84,NNE,24,5.0,9.0,91,0.00,,---,0.05,0.00,VWS V14.01,2013-02-28 05:25:00,
2013-02-27 23:30:00,31.6,29.0,29.85,NNE,19,3.0,9.0,90,0.00,,---,0.05,0.00,VWS V14.01,2013-02-28 05:30:00,
2013-02-27 23:35:00,31.6,29.0,29.84,NNW,347,5.0,9.0,90,0.00,,---,0.05,0.00,VWS V14.01,2013-02-28 05:35:00,
2013-02-27 23:40:00,31.6,29.0,29.84,NNE,22,1.0,10.0,90,0.00,,---,0.05,0.00,VWS V14.01,2013-02-28 05:40:00,
2013-02-27 23:45:00,31.6,29.0,29.84,NNE,13,8.0,10.0,90,0.00,,---,0.05,0.00,VWS V14.01,2013-02-28 05:45:00,
2013-02-27 23:50:00,31.6,29.0,29.84,WNW,300,6.0,10.0,90,0.00,,---,0.05,0.00,VWS V14.01,2013-02-28 05:50:00,
2013-02-27 23:55:00,31.5,28.9,29.85,NNW,342,3.0,10.0,90,0.00,,---,0.05,0.00,VWS V14.01,2013-02-28 05:55:00,